Change the Weather History Date:

Tuesday, May 28, 2013

  Actual Average Record
Temperature  
Mean Temperature 73 °F -  
Max Temperature 80 °F 78 °F 84 °F (1999)
Min Temperature 66 °F 64 °F 60 °F (2001)
Cooling Degree Days 8    
Growing Degree Days 23 (Base 50)    
Moisture  
Dew Point 64 °F    
Average Humidity 76    
Maximum Humidity 94    
Minimum Humidity 48    
Precipitation  
Precipitation 0.16 in 0.07 in - ()
Sea Level Pressure  
Sea Level Pressure 30.04 in    
Wind  
Wind Speed 13 mph ()    
Max Wind Speed 23 mph    
Max Gust Speed 33 mph    
Visibility 6.4 miles    
Events Rain    
Averages and records for this station are not official NWS values.
T = Trace of Precipitation, MM = Missing Value Source: Averaged Metar Reports

Daily Weather History Graph

Daily Weather History Graph

Search for Another Location

Airport or City:

Trip Planner

Search our weather history database for the weather conditions in past years. The results will help you decide how hot, cold, wet, or windy it might be!

Date:

Astronomy

May. 28, 2013 Rise Set
Actual Time 6:37 AM AEST 5:50 PM AEST
Civil Twilight 6:14 AM AEST 6:13 PM AEST
Nautical Twilight 5:47 AM AEST 6:40 PM AEST
Astronomical Twilight 5:21 AM AEST 7:06 PM AEST
Moon 9:10 PM AEST (5/28) 9:24 AM AEST (5/28)
Length of Visible Light 11h 59m
Length of Day
11h 12m
Waning Gibbous, 88% of the Moon is Illuminated
May 28
Waning Gibbous
Jun 1
Last Quarter
Jun 9
New
Jun 17
First Quarter
Jun 23
Full

Hourly Weather History & Observations

Time (AEST) Temp. Heat Index Dew Point Humidity Pressure Visibility Wind Dir Wind Speed Gust Speed Precip Events Conditions
12:00 AM 69 °F - 61 °F 69% 30.09 in - South 12.7 mph - -   Overcast
12:00 AM 69.8 °F - 60.8 °F 73% 30.06 in 6.2 mi South 12.7 mph - N/A Rain Light Rain Showers
12:30 AM 71.6 °F - 60.8 °F 69% 30.06 in 6.2 mi South 15.0 mph - N/A   Mostly Cloudy
1:00 AM 70 °F - 61 °F 67% 30.08 in - South 13.8 mph - -  
1:00 AM 69.8 °F - 60.8 °F 73% 30.06 in 6.2 mi South 13.8 mph - N/A   Mostly Cloudy
1:30 AM 69.8 °F - 62.6 °F 78% 30.06 in 6.2 mi South 10.4 mph - N/A   Scattered Clouds
2:00 AM 69.8 °F - 62.6 °F 78% 30.04 in 6.2 mi South 11.5 mph - N/A   Partly Cloudy
2:30 AM 69.8 °F - 60.8 °F 73% 30.04 in 6.2 mi South 10.4 mph - N/A   Partly Cloudy
3:00 AM 69 °F - 61 °F 69% 30.04 in - South 11.5 mph - -  
3:00 AM 69.8 °F - 60.8 °F 73% 30.04 in 6.2 mi South 11.5 mph - N/A   Partly Cloudy
3:30 AM 66.2 °F - 62.6 °F 88% 30.01 in 6.2 mi ESE 10.4 mph - N/A   Partly Cloudy
4:00 AM 69 °F - 61 °F 69% 30.03 in - South 11.5 mph - -  
4:00 AM 69.8 °F - 60.8 °F 73% 30.01 in 6.2 mi South 11.5 mph - N/A   Partly Cloudy
4:30 AM 69.8 °F - 60.8 °F 73% 30.04 in 6.2 mi South 12.7 mph - N/A   Scattered Clouds
5:00 AM 68.0 °F - 62.6 °F 83% 30.04 in 6.2 mi South 15.0 mph - N/A   Partly Cloudy
5:30 AM 68.0 °F - 62.6 °F 83% 30.01 in 6.2 mi South 15.0 mph - N/A   Partly Cloudy
6:00 AM 67 °F - 65 °F 89% 30.04 in 12 mi SSE 19.6 mph - - Rain Light Rain Showers
6:00 AM 68.0 °F - 64.4 °F 88% 30.04 in 6.2 mi SSE 19.6 mph - N/A Rain Light Rain Showers
6:30 AM 68.0 °F - 64.4 °F 88% 30.04 in 6.2 mi South 10.4 mph - N/A   Mostly Cloudy
7:00 AM 68 °F - 64 °F 85% 30.06 in - South 11.5 mph - -  
7:00 AM 68.0 °F - 64.4 °F 88% 30.04 in 3.1 mi South 11.5 mph - N/A Rain Light Rain Showers
7:29 AM 68.0 °F - 64.4 °F 88% 30.04 in 6.2 mi South 16.1 mph - N/A   Mostly Cloudy
7:30 AM 68.0 °F - 64.4 °F 88% 30.04 in 6.2 mi South 15.0 mph - N/A   Mostly Cloudy
7:38 AM 68.0 °F - 64.4 °F 88% 30.04 in 6.2 mi South 12.7 mph - N/A Rain Light Rain Showers
8:00 AM 68.0 °F - 64.4 °F 88% 30.06 in 5.0 mi SSE 12.7 mph - N/A   Mostly Cloudy
8:12 AM 68.0 °F - 66.2 °F 94% 30.06 in 3.7 mi SSE 11.5 mph - N/A Rain Light Rain Showers
8:30 AM 68.0 °F - 66.2 °F 94% 30.06 in 6.2 mi South 11.5 mph - N/A   Mostly Cloudy
8:57 AM 69.8 °F - 66.2 °F 88% 30.06 in 6.2 mi South 11.5 mph - N/A Rain Light Rain Showers
9:00 AM 70 °F - 66 °F 82% 30.09 in 2 mi South 11.5 mph - - Rain Light Rain Showers
9:00 AM 69.8 °F - 66.2 °F 88% 30.06 in 2.5 mi South 11.5 mph - N/A Rain Light Rain Showers
9:30 AM 69.8 °F - 64.4 °F 83% 30.06 in 6.2 mi South 15.0 mph - N/A   Mostly Cloudy
10:00 AM 71 °F - 65 °F 76% 30.09 in - South 16.1 mph - -  
10:00 AM 69.8 °F - 64.4 °F 83% 30.06 in 6.2 mi South 16.1 mph - N/A   Mostly Cloudy
10:30 AM 71.6 °F - 64.4 °F 78% 30.06 in 6.2 mi South 10.4 mph - N/A   Mostly Cloudy
11:00 AM 73.4 °F - 64.4 °F 73% 30.06 in 6.2 mi South 11.5 mph - N/A   Mostly Cloudy
11:30 AM 78.8 °F - 66.2 °F 65% 30.06 in 6.2 mi South 11.5 mph - N/A   Mostly Cloudy
12:00 PM 77 °F - 64 °F 55% 30.05 in 19 mi SE 19.6 mph - -   Partly Cloudy
12:00 PM 77.0 °F - 64.4 °F 65% 30.04 in 6.2 mi SE 19.6 mph - N/A   Mostly Cloudy
12:30 PM 77.0 °F - 64.4 °F 65% 30.04 in 6.2 mi SSE 17.3 mph - N/A   Mostly Cloudy
1:00 PM 79 °F - 64 °F 50% 30.04 in - SE 17.3 mph - -  
1:00 PM 78.8 °F - 64.4 °F 61% 30.01 in 6.2 mi SE 17.3 mph 28.8 mph N/A   Scattered Clouds
1:30 PM 80.6 °F 82.3 °F 64.4 °F 58% 30.01 in 6.2 mi SE 21.9 mph - N/A   Scattered Clouds
2:00 PM 77.0 °F - 64.4 °F 65% 30.01 in 6.2 mi SSE 23.0 mph - N/A   Scattered Clouds
2:30 PM 78.8 °F - 64.4 °F 61% 30.01 in 6.2 mi SSE 18.4 mph - N/A   Scattered Clouds
3:00 PM 77 °F - 63 °F 52% 30.01 in 19 mi SE 21.9 mph - -   Partly Cloudy
3:00 PM 77.0 °F - 62.6 °F 61% 30.01 in 6.2 mi SE 21.9 mph - N/A   Partly Cloudy
3:30 PM 77.0 °F - 60.8 °F 57% 30.01 in 6.2 mi SSE 17.3 mph - N/A   Partly Cloudy
4:00 PM 77 °F - 61 °F 48% 30.01 in - SSE 16.1 mph - -  
4:00 PM 77.0 °F - 60.8 °F 57% 30.01 in 6.2 mi SSE 16.1 mph - N/A   Partly Cloudy
4:13 PM 77.0 °F - 62.6 °F 61% 30.01 in 6.2 mi SE 20.7 mph 33.4 mph N/A   Scattered Clouds
4:30 PM 75.2 °F - 62.6 °F 65% 30.01 in 6.2 mi SE 20.7 mph - N/A   Scattered Clouds
5:00 PM 75.2 °F - 60.8 °F 61% 30.01 in 6.2 mi SSE 10.4 mph - N/A   Partly Cloudy
5:30 PM 73.4 °F - 62.6 °F 69% 30.01 in - SE 16.1 mph - N/A   Clear
6:00 PM 73 °F - 63 °F 62% 30.03 in - SSE 13.8 mph - -   Overcast
6:30 PM 71.6 °F - 64.4 °F 78% 30.04 in 6.2 mi South 16.1 mph - N/A Rain Light Rain Showers
7:00 PM 69 °F - 65 °F 81% 30.05 in - South 12.7 mph - -  
7:00 PM 69.8 °F - 64.4 °F 83% 30.04 in 6.2 mi South 12.7 mph - N/A   Mostly Cloudy
7:30 PM 68.0 °F - 64.4 °F 88% 30.06 in 3.7 mi SSE 8.1 mph - N/A Rain Light Rain Showers
7:50 PM 68.0 °F - 66.2 °F 94% 30.06 in 6.2 mi NE 2.3 mph - N/A Rain Light Rain Showers
8:00 PM 68.0 °F - 66.2 °F 94% 30.06 in 6.2 mi WSW 4.6 mph - N/A Rain Light Rain Showers
8:30 PM 69.8 °F - 66.2 °F 88% 30.06 in 6.2 mi South 11.5 mph - N/A Rain Light Rain Showers
9:00 PM 70 °F - 65 °F 81% 30.07 in - South 12.7 mph - -  
9:00 PM 69.8 °F - 66.2 °F 88% 30.06 in 5.0 mi South 12.7 mph - N/A Rain Light Rain Showers
9:30 PM 69.8 °F - 66.2 °F 88% 30.06 in 6.2 mi South 10.4 mph - N/A   Partly Cloudy
10:00 PM 69 °F - 66 °F 86% 30.07 in - South 10.4 mph - -  
10:00 PM 69.8 °F - 66.2 °F 88% 30.06 in 6.2 mi South 10.4 mph - N/A   Scattered Clouds
10:30 PM 71.6 °F - 64.4 °F 78% 30.06 in 6.2 mi South 10.4 mph - N/A   Scattered Clouds
11:00 PM 71.6 °F - 64.4 °F 78% 30.04 in 6.2 mi South 10.4 mph - N/A   Partly Cloudy